Temperature
13 13 13 13 13 13 13 13 13 14 13 13 12 12 12 12 12 12 12 13 13 13 13 13 12 12 12 12 12 12 12 12 12 11 11 11 11 11
13 13 13 13 13 13 13 13 13 13 13 13 12 12 12 12 12 12 12 12 12 12 12 12 12 12 12 12 12 12 12 12 11 11 11 11 11 11
13 13 13 13 13 13 13 13 13 13 13 12 12 12 12 12 12 12 12 12 12 12 12 12 12 12 12 12 12 11 11 11 11 11 11 11 11 11
13 13 13 13 13 13 13 13 13 12 13 12 12 12 12 11 12 12 12 12 11 12 12 12 12 11 11 11 11 11 11 11 11 11 11 11 11 10
13 13 12 12 12 12 12 12 12 12 12 12 12 12 12 12 12 12 11 11 11 11 11 11 11 11 11 11 11 11 11 11 11 11 11 10 10 10
12 12 12 12 12 12 12 12 12 12 12 12 12 12 11 11 11 11 11 11 11 11 11 11 11 11 11 11 11 11 11 11 10 10 10 10 10 10
12 12 12 12 12 12 12 12 12 12 12 11 11 11 11 11 11 11 11 11 11 11 11 10 10 10 10 11 11 11 10 10 10 10 10 10 10 10
12 12 12 12 12 12 12 12 12 12 11 11 11 11 11 11 11 11 11 11 10 11 10 10 10 10 10 10 10 10 10 10 10 10 10 10 9 9
11 11 11 12 12 11 11 12 12 12 12 11 11 11 11 11 11 10 10 10 10 10 10 10 10 10 10 10 10 10 10 10 10 9 9 9 9 9
11 11 11 11 11 11 11 11 11 11 11 11 11 11 11 11 11 10 10 10 10 10 10 10 10 10 10 10 10 10 10 9 9 9 9 9 9 9
11 11 11 11 11 11 11 11 11 11 11 11 11 11 11 11 11 10 10 10 10 10 10 9 9 9 9 9 9 9 9 9 9 9 9 9 9 9
10 10 11 11 11 11 10 10 10 10 10 10 10 10 10 10 10 10 10 9 9 9 9 9 9 9 9 9 9 9 9 9 9 9 9 8 8 8
10 10 10 10 10 10 10 10 10 10 10 10 10 10 10 10 10 9 9 9 9 9 9 9 9 9 8 8 9 9 9 8 8 8 8 8 8 8
9 9 10 10 10 10 10 10 10 9 9 9 9 9 9 9 9 9 9 9 8 8 9 8 8 8 8 8 8 8 8 8 8 8 8 8 8 8
9 9 9 9 9 9 9 9 9 9 9 9 9 9 9 8 8 8 8 8 8 8 8 8 8 8 8 7 8 8 8 8 8 8 7 7 7 7
9 9 9 9 9 9 9 9 8 8 8 8 8 8 8 8 8 8 8 8 8 8 8 8 8 7 7 7 7 7 7 7 7 7 7 7 7 7
8 8 8 8 8 8 8 8 8 8 8 7 7 7 7 7 7 7 7 7 7 7 7 7 7 7 7 7 7 7 7 6 7 7 6 6 6 6
8 7 7 7 7 7 7 7 7 7 7 7 7 7 7 7 7 7 6 6 6 7 7 7 7 6 6 6 7 6 6 6 6 6 6 6 6 6
7 7 7 6 6 6 6 6 6 6 6 6 6 6 6 6 6 6 6 6 6 6 6 6 6 6 6 5 6 6 6 6 5 5 5 5 5 5
6 6 6 6 6 6 6 6 5 5 5 5 5 5 5 5 5 5 5 5 5 5 5 6 6 5 5 5 5 5 5 5 5 5 5 5 5 5
6 6 6 6 6 5 5 5 5 5 5 5 5 5 5 5 5 5 5 5 5 5 5 5 5 5 5 5 4 5 5 5 5 5 4 4 4 4
5 5 5 5 5 5 5 5 5 5 5 5 4 4 4 4 4 4 4 4 5 4 4 5 5 4 4 4 4 4 4 4 4 4 4 4 4 4
5 5 4 5 5 4 4 4 4 4 4 4 4 4 4 4 4 4 4 4 4 4 4 4 4 4 4 4 4 4 4 4 4 4 4 4 4 4
Wind_Speed
3 4 3 2 2 2 2 2 2 2 2 1 1 1 1 2 1 1 2 4 3 3 3 3 3 3 3 3 3 3 3 3 3 3 2 2 1 1
3 3 3 2 2 2 2 2 3 2 2 1 1 1 1 1 1 1 2 5 3 3 2 2 3 3 4 4 3 3 3 3 3 3 2 2 1 1
4 4 4 3 2 2 2 2 2 2 2 2 2 2 2 2 1 1 1 1 3 4 3 3 3 4 4 4 4 4 4 3 3 2 2 2 1 1
3 3 3 3 3 3 3 3 3 3 3 3 2 2 2 2 1 1 1 1 1 4 4 3 3 4 4 4 4 4 3 3 3 3 2 1 1 0
3 3 3 3 4 3 3 3 3 3 3 3 3 2 2 2 2 2 2 2 1 3 4 4 4 3 3 3 3 2 2 2 2 2 2 1 0 1
3 4 3 4 4 3 3 4 3 4 4 3 3 3 3 3 3 3 2 2 2 2 2 3 4 5 4 3 3 2 2 2 2 2 2 1 0 0
3 3 3 1 2 2 2 3 4 4 4 4 4 3 3 3 4 3 3 3 3 2 3 3 4 3 4 5 5 5 4 4 3 3 2 2 1 1
3 3 3 2 2 2 1 1 2 4 4 4 4 4 4 4 3 4 4 4 3 3 3 3 3 3 3 3 5 6 6 5 5 4 4 3 3 3
3 3 2 2 3 3 4 5 3 2 3 5 5 4 4 4 4 5 4 4 4 2 3 3 3 4 4 3 6 7 7 6 6 6 5 5 4 5
4 4 3 3 3 3 4 4 4 3 3 4 4 4 4 3 4 4 4 4 3 2 3 3 3 4 3 4 7 8 8 7 7 7 6 6 6 6
4 4 3 4 2 3 4 5 4 3 2 1 1 1 2 2 3 3 4 4 4 4 3 3 3 4 4 4 5 8 8 8 8 7 7 7 7 7
3 3 2 3 3 4 5 5 5 4 4 4 4 3 4 3 4 5 5 5 4 4 3 4 4 3 3 3 3 4 6 7 8 8 8 7 7 7
3 3 2 2 4 5 6 5 4 4 5 4 4 4 4 4 4 5 5 5 5 4 3 4 4 4 4 3 3 4 4 4 5 6 7 8 8 7
4 3 2 2 3 4 4 2 3 4 4 4 4 4 4 4 4 5 5 5 5 5 5 5 5 5 5 5 4 4 4 5 5 5 5 6 8 9
3 1 0 2 2 3 3 3 5 5 4 4 5 5 4 4 4 4 5 5 5 5 5 6 6 5 6 6 6 4 4 4 5 5 5 5 5 6
2 1 2 2 2 1 2 3 4 4 4 4 4 4 4 4 4 4 4 3 4 4 4 5 5 5 6 6 6 5 5 4 4 5 5 5 6 6
2 2 2 2 2 2 2 3 3 3 4 4 4 4 4 4 4 4 4 4 5 5 4 3 4 4 5 5 6 6 6 6 5 5 5 6 6 6
3 3 3 3 4 4 4 3 3 4 4 4 4 4 4 4 4 4 4 5 5 5 4 4 3 3 4 4 6 7 6 6 5 5 6 6 7 6
3 4 4 4 4 4 4 4 4 4 4 4 4 5 5 5 5 5 5 5 5 5 5 4 4 4 5 6 5 7 6 5 5 6 6 7 7 6
4 4 5 4 4 4 4 4 5 4 4 5 5 5 5 5 5 5 5 6 6 5 5 5 5 6 6 6 6 5 8 7 6 6 6 6 6 5
5 5 5 5 5 5 5 5 5 5 5 5 5 5 6 6 6 6 6 6 6 6 6 6 6 7 6 5 5 5 5 7 7 5 5 5 5 5
5 5 5 5 5 5 5 5 5 5 5 5 6 6 6 6 7 7 7 6 6 6 7 6 4 4 5 6 7 7 6 5 6 7 7 6 4 4
5 5 5 5 5 5 5 6 6 6 6 6 6 6 6 6 6 7 7 7 6 7 6 6 5 5 6 7 7 7 7 6 5 5 6 8 9 10
Wind_Direction
242 234 232 222 225 228 233 237 244 236 203 165 166 144 116 96 103 159 106 99 97 76 61 54 65 76 83 83 94 100 98 91 92 106 103 108 113 110
244 241 230 221 215 212 219 235 255 258 225 172 175 163 135 139 100 87 90 111 117 106 85 73 72 83 85 86 92 94 97 94 96 105 109 107 116 117
221 224 219 214 209 206 211 220 230 225 205 193 174 176 179 180 152 164 140 161 120 122 121 109 100 98 100 98 98 98 97 96 97 108 120 116 110 147
238 228 221 202 214 218 214 215 219 223 215 207 194 193 203 198 199 204 194 180 122 119 137 133 128 120 113 107 104 98 94 96 92 95 108 106 104 166
245 240 233 222 219 216 217 219 218 212 214 214 209 197 210 205 206 213 211 202 181 145 155 162 158 151 144 136 127 117 110 113 105 98 99 101 148 231
248 244 242 238 238 231 222 221 216 207 204 209 207 208 213 218 219 217 222 209 218 201 176 174 173 182 182 178 180 182 169 152 144 136 126 110 100 252
246 244 246 271 339 281 251 228 211 208 205 209 212 218 220 216 226 230 235 237 222 226 226 211 199 205 196 197 202 202 195 187 185 186 186 193 212 242
243 239 223 208 195 193 228 270 251 226 217 211 219 225 230 232 232 232 234 235 240 219 235 239 224 230 221 212 174 184 197 201 203 205 211 219 229 238
245 240 228 218 211 208 191 192 209 246 256 243 235 238 239 234 231 234 236 242 247 239 237 247 234 242 228 199 169 186 199 207 211 215 219 225 232 237
243 245 235 221 208 223 215 211 214 216 226 233 244 254 259 254 248 245 247 247 249 236 232 253 248 251 240 213 179 193 206 212 215 219 223 227 234 240
241 243 244 236 185 240 227 220 216 216 192 181 328 309 343 319 262 240 233 230 239 236 230 243 254 257 250 234 198 191 203 210 215 221 227 232 237 241
240 236 237 249 200 220 229 226 226 229 228 215 216 220 226 224 224 233 237 239 244 250 231 230 241 252 253 236 220 209 206 204 210 219 225 232 238 244
247 246 233 181 208 228 246 240 237 241 235 233 233 232 233 233 230 230 235 245 247 249 238 232 244 246 251 258 247 235 232 227 221 220 216 217 224 240
250 256 246 177 221 235 243 233 220 235 234 231 234 234 237 240 241 238 238 239 248 256 248 236 248 246 248 256 256 242 237 238 239 239 236 211 215 224
255 300 270 196 223 232 235 216 216 232 233 236 241 244 245 249 248 244 246 244 253 252 246 237 241 246 248 254 257 256 258 253 242 244 242 235 234 232
249 177 168 201 231 249 219 223 236 243 244 247 254 253 249 244 242 242 240 237 246 252 243 236 241 243 247 252 256 260 257 255 247 245 246 248 246 242
230 229 231 228 235 241 244 247 242 237 239 246 249 252 250 248 249 244 242 240 243 246 241 232 228 232 250 258 249 252 254 254 253 250 248 247 249 246
200 223 232 235 239 242 242 243 245 247 245 244 245 246 244 244 248 247 243 241 245 246 246 242 222 229 247 259 245 250 252 252 251 245 242 245 250 248
212 230 237 244 247 247 246 246 247 248 246 243 243 244 243 242 242 243 241 243 245 247 246 241 233 229 245 260 249 225 245 252 249 243 241 244 252 252
235 241 244 247 247 246 246 250 252 249 244 244 244 243 241 240 241 241 240 242 246 249 250 244 237 234 241 259 269 261 232 245 246 245 245 248 254 250
241 246 249 249 249 251 249 247 248 249 248 244 244 245 242 239 240 242 243 243 245 246 248 250 249 245 251 255 257 255 244 230 247 258 252 249 255 253
247 249 250 251 250 253 255 251 248 248 248 247 247 245 245 243 241 242 244 243 242 244 251 258 256 243 237 243 253 260 259 246 233 243 246 248 256 251
250 251 250 250 248 248 249 248 248 248 247 247 248 248 248 249 248 244 243 243 244 247 252 255 251 243 241 244 252 257 258 256 253 249 245 236 243 253
Height
1538 1538 1538 1538 1538 1538 1539 1539 1540 1539 1540 1540 1540 1539 1539 1539 1538 1538 1538 1537 1537 1536 1536 1535 1535 1535 1535 1535 1535 1535 1535 1535 1535 1535 1535 1536 1536 1536
1536 1536 1536 1536 1536 1536 1537 1537 1538 1538 1538 1538 1538 1538 1538 1538 1538 1538 1537 1537 1536 1536 1535 1534 1534 1534 1534 1534 1534 1534 1534 1534 1534 1534 1534 1534 1534 1534
1534 1535 1535 1535 1535 1535 1535 1535 1536 1537 1537 1537 1537 1537 1537 1537 1537 1537 1536 1536 1535 1535 1534 1534 1533 1533 1533 1533 1533 1533 1533 1533 1533 1533 1533 1533 1533 1533
1533 1533 1533 1533 1533 1533 1533 1534 1534 1534 1535 1535 1535 1535 1536 1536 1536 1535 1535 1535 1534 1533 1533 1532 1532 1532 1532 1532 1532 1532 1531 1531 1531 1531 1531 1531 1531 1531
1530 1531 1531 1531 1531 1531 1531 1532 1532 1532 1533 1533 1533 1533 1534 1534 1534 1534 1534 1533 1533 1532 1531 1531 1531 1531 1530 1530 1530 1530 1530 1529 1529 1529 1529 1529 1529 1529
1528 1528 1528 1529 1529 1529 1529 1529 1530 1530 1530 1531 1531 1532 1532 1532 1532 1532 1532 1532 1531 1531 1530 1530 1529 1529 1529 1528 1528 1528 1528 1528 1528 1527 1527 1527 1528 1528
1525 1525 1525 1525 1526 1526 1527 1527 1527 1528 1528 1528 1529 1529 1530 1529 1530 1530 1530 1530 1529 1529 1529 1528 1528 1527 1527 1526 1526 1526 1526 1526 1526 1526 1525 1526 1526 1526
1523 1523 1523 1523 1523 1523 1524 1524 1525 1525 1526 1526 1527 1527 1527 1527 1527 1527 1527 1528 1528 1527 1526 1526 1526 1525 1525 1524 1524 1524 1524 1524 1524 1524 1523 1523 1523 1523
1520 1520 1520 1520 1520 1521 1521 1521 1522 1522 1523 1524 1524 1524 1525 1525 1525 1525 1524 1525 1525 1524 1524 1524 1524 1523 1523 1522 1521 1521 1521 1521 1521 1521 1521 1521 1521 1521
1517 1517 1517 1517 1517 1518 1518 1519 1519 1519 1520 1520 1521 1521 1521 1521 1521 1521 1521 1521 1521 1521 1521 1521 1521 1521 1521 1520 1519 1519 1519 1519 1519 1519 1519 1518 1518 1518
1514 1514 1514 1514 1514 1515 1515 1516 1516 1516 1516 1516 1517 1517 1518 1518 1518 1518 1518 1518 1518 1518 1518 1518 1517 1517 1517 1517 1516 1516 1516 1516 1516 1516 1515 1515 1515 1514
1511 1511 1511 1511 1511 1511 1512 1513 1513 1513 1513 1513 1513 1514 1514 1514 1514 1514 1514 1515 1514 1515 1514 1514 1514 1514 1514 1514 1514 1513 1513 1512 1512 1512 1512 1512 1511 1511
1508 1508 1508 1507 1508 1508 1508 1509 1509 1510 1510 1510 1510 1510 1510 1510 1510 1510 1510 1510 1510 1510 1511 1511 1510 1511 1511 1510 1510 1510 1509 1509 1509 1508 1508 1508 1508 1507
1504 1504 1504 1504 1504 1504 1504 1505 1505 1506 1506 1507 1507 1506 1506 1506 1506 1506 1506 1506 1506 1506 1506 1506 1506 1506 1506 1506 1506 1506 1505 1505 1504 1504 1504 1503 1503 1503
1500 1500 1500 1500 1500 1500 1500 1501 1501 1502 1502 1502 1503 1503 1503 1503 1502 1502 1502 1502 1502 1502 1502 1502 1502 1501 1502 1502 1501 1501 1501 1500 1500 1499 1499 1499 1499 1498
1496 1496 1496 1496 1496 1496 1496 1496 1497 1497 1498 1498 1498 1498 1498 1498 1498 1498 1498 1498 1497 1497 1498 1498 1497 1497 1497 1497 1496 1496 1495 1495 1495 1495 1494 1494 1493 1493
1492 1492 1492 1492 1492 1492 1492 1492 1492 1492 1493 1493 1493 1493 1494 1494 1494 1494 1493 1493 1493 1493 1493 1493 1493 1492 1492 1492 1491 1491 1490 1490 1490 1490 1489 1488 1488 1487
1488 1488 1488 1488 1488 1488 1488 1488 1488 1488 1488 1488 1488 1489 1489 1489 1489 1489 1489 1489 1489 1489 1489 1489 1488 1488 1488 1487 1487 1486 1486 1485 1485 1484 1484 1483 1482 1482
1483 1483 1483 1483 1483 1483 1483 1483 1483 1483 1483 1484 1484 1484 1484 1484 1484 1484 1484 1484 1484 1484 1484 1484 1484 1483 1483 1482 1481 1481 1481 1480 1480 1479 1478 1478 1477 1476
1478 1478 1478 1478 1478 1478 1478 1478 1479 1479 1479 1479 1479 1479 1479 1479 1479 1479 1479 1479 1479 1479 1479 1479 1479 1478 1477 1478 1477 1476 1476 1475 1475 1474 1473 1472 1471 1471
1473 1473 1473 1473 1473 1473 1473 1473 1473 1473 1473 1474 1474 1474 1474 1474 1474 1474 1474 1474 1475 1474 1474 1473 1473 1473 1473 1473 1472 1470 1470 1470 1469 1468 1468 1467 1466 1465
1468 1468 1468 1468 1468 1468 1468 1468 1468 1468 1468 1468 1468 1468 1468 1468 1468 1469 1469 1469 1469 1469 1468 1468 1468 1468 1468 1467 1466 1465 1464 1464 1463 1462 1462 1462 1461 1460
1463 1463 1463 1463 1463 1462 1462 1462 1462 1462 1462 1462 1462 1463 1463 1463 1463 1463 1463 1463 1463 1463 1463 1463 1462 1462 1462 1461 1461 1460 1459 1458 1458 1457 1456 1456 1456 1455